Location: Aranbee
(34.0885°N, 118.2342°W)
Time: 21:11:36
(UTC+00:00)

Envisat - Visible Passes

Search period start: 24 January 2022 00:00
Search period end: 03 February 2022 00:00
Orbit: 764 x 766 km, 98.2° (Epoch: 24 January)

Date Brightness Start Highest point End Pass type
(mag) Time Alt. Az. Time Alt. Az. Time Alt. Az.
24 Jan 3.8 12:19:35 10° NNE 12:24:30 49° E 12:29:24 10° S visible
24 Jan 4.4 13:59:57 10° NNW 14:03:04 17° WNW 14:06:11 10° WSW visible
25 Jan 5.3 11:43:44 10° NE 11:47:28 20° E 11:51:10 10° SE visible
25 Jan 3.4 13:21:53 10° N 13:26:32 37° WNW 13:31:10 10° SW visible
26 Jan 2.9 12:44:42 10° NNE 12:49:48 90° WNW 12:54:52 10° SSW visible
27 Jan 4.3 12:08:12 10° NNE 12:12:53 37° E 12:17:33 10° SSE visible
27 Jan 4.1 13:47:51 10° NNW 13:51:36 21° WNW 13:55:21 10° WSW visible
28 Jan 5.6 11:32:48 10° ENE 11:35:47 16° E 11:38:44 10° SE visible
28 Jan 3.1 13:10:07 10° N 13:15:00 49° WNW 13:19:52 10° SSW visible
29 Jan 3.2 12:33:08 10° NNE 12:38:13 70° ESE 12:43:15 10° S visible
29 Jan 4.7 14:14:48 10° NW 14:16:34 12° WNW 14:18:20 10° W visible
30 Jan 4.8 11:56:52 10° NE 12:01:14 28° E 12:05:35 10° SSE visible
30 Jan 3.8 13:35:53 10° NNW 13:40:06 27° WNW 13:44:19 10° SW visible
31 Jan 5.9 11:22:25 10° ENE 11:24:05 11° E 11:25:45 10° ESE visible
31 Jan 2.9 12:58:25 10° N 13:03:27 64° WNW 13:08:27 10° SSW visible
01 Feb 3.6 12:21:38 10° NNE 12:26:36 53° E 12:31:32 10° S visible
01 Feb 4.5 14:02:14 10° NNW 14:05:07 15° WNW 14:08:00 10° W visible
02 Feb 5.2 11:45:40 10° NE 11:49:34 22° E 11:53:27 10° SE visible
02 Feb 3.5 13:24:01 10° N 13:28:36 35° WNW 13:33:09 10° SW visible
